Powrót do katalogu

CBERS 1 DEB

AktywnySSO
NORAD 32079·DEBRIS·🇧🇷 Brazil🇨🇳 China

Wystrzelony Oct 14, 1999 z Taiyuan Satellite Launch Center

Loading…

Następne Przeloty (najbliższe 24 godziny)

TLE

ŚwieżeSource: Space-Track

Epoka: Sep 12, 2026, 19:44 UTC

1 32079U 99057QT  26255.82267201  .00000566  00000-0  17401-3 0  9992
2 32079  98.7384 288.8232 0005081   5.5651 354.5595 14.45423492 10118

Śledź CBERS 1 DEB w czasie rzeczywistym z AllMySat

Download on the App Store